User: anonymous   Login
Location: Hartman Creek State Park
(44.3257°N, 89.2134°W)
Time: 10:49:44
(UTC-06:00)
Language:

Cosmos 2263 Rocket - Orbit

View from above orbital plane
View from above orbital plane
View from above satellite
View from above satellite

Ground track
Ground track

The orbit data is extracted from the following two-line orbital elements,

1 22803U 93059B   15057.88840993 -.00000142  00000-0 -47129-4 0  9994
2 22803 070.9889 222.1611 0019068 231.7194 128.2215 14.16702262109129
Epoch (UTC): 26 February 2015 21:19:18
Eccentricity: 0.0019068
inclination: 70.9889°
perigee height: 823 km
apogee height: 850 km
right ascension of ascending node: 222.1611°
argument of perigee: 231.7194°
revolutions per day: 14.16702262
mean anomaly at epoch: 128.2215°
orbit number at epoch: 10912

The dashed part of the orbit path shows where the satellite is in the earth's shadow,  

DLR